Tracking 18980 objects as of 17-Feb-2018
HD Live streaming from Space Station
objects crossing your sky now

WESTFORD NEEDLES

Track WESTFORD NEEDLES now!
10-day predictions
WESTFORD NEEDLES is classified as:


NORAD ID: 629
Int'l Code: 1963-014G
Perigee: 3,579.0 km
Apogee: 3,719.5 km
Inclination: 87.3 °
Period: 166.4 minutes
Semi major axis: 10020 km
RCS: 1.0881 m2 (large)
Launch date: May 9, 1963
Source: United States (US)
Launch site: AIR FORCE WESTERN TEST RANGE (AFWTR)
aabbcc
Your satellite tracking list
Your tracking list is empty




NASA's NSSDC Master Catalog

Two Line Element Set (TLE):
1 00629U 63014G   18047.12710259  .00000053  00000-0  23348-1 0  9997
2 00629  87.3288 122.3812 0070131 255.0862 104.2218  8.65534290730879
Source of the keplerian elements: AFSPC